Regional Weather Roundup
Issued by NWS Cleveland, OH

Home | Current Version | Previous Version | Graphics & Text | Print | Product List | Glossary On
Versions: 1 2 3 4 5 6 7 8 9 10 11 12 13 14 15 16 17 18 19 20 21 22 23 24 25 26 27 28 29 30 31 32 33 34 35 36 37 38 39 40 41 42 43 44 45 46 47 48 49 50
583
ASUS41 KCLE 101312
RWRCLE
OHIO REGIONAL WEATHER ROUNDUP
NATIONAL WEATHER SERVICE WILMINGTON, OH
800 AM EST WED FEB 10 2016

NOTE: "FAIR" INDICATES FEW OR NO CLOUDS BELOW 12,000 FEET WITH NO
SIGNIFICANT WEATHER AND/OR OBSTRUCTIONS TO VISIBILITY.

OHZ001>008-015>018-024>027-034-035-043-044-101400-
   NORTHWEST OHIO

CITY           SKY/WX    TMP DP  RH WIND       PRES   REMARKS
DEFIANCE       LGT SNOW  20  15  81 W5        29.86R WCI  13
FINDLAY        CLOUDY    18  13  80 W17       29.83R WCI   3
TOLEDO EXPRESS MOCLDY    19  12  74 W13       29.82R WCI   6
TOLEDO EXEC    CLOUDY    21  12  68 NW20      29.83R WCI   6
LIMA           LGT SNOW  15  11  83 W18       29.86R FOG     WCI  -2
$$

OHZ009>014-019>023-028>033-038-089-101400-
   NORTHEAST OHIO

CITY           SKY/WX    TMP DP  RH WIND       PRES   REMARKS
CLE-HOPKINS    FLURRIES  20  14  77 SW16      29.80R WCI   6
CLE-LAKEFRONT  LGT SNOW  22  17  81 SW17      29.77R WCI   8
CUY CO. ARPT   NOT AVBL
LORAIN-ELYRIA  CLOUDY    20  14  77 W17       29.80R WCI   5
ASHTABULA      LGT SNOW  22  19  89 W14       29.72R FOG     WCI   9
AKRON-CANTON   LGT SNOW  19  13  77 W10       29.77R WCI   7
WOOSTER        LGT SNOW  18  13  80 W14       29.79R WCI   4
MANSFIELD      LGT SNOW  16  13  88 SW12      29.79R FOG     WCI   3
YOUNGSTOWN     LGT SNOW  21  16  81 SW15      29.74R WCI   8
$$

OHZ042-051>053-060>062-070>072-077>081-101400-
  SOUTHWEST OHIO

CITY           SKY/WX    TMP DP  RH WIND       PRES   REMARKS
CINC-COVINGTON CLOUDY    15   7  70 W17       29.97R WCI  -1
CINC-LUNKEN    LGT SNOW  16  10  77 W15       30.01S WCI   1
HAMILTON       CLOUDY    16   9  74 W10       29.99R WCI   4
DAYTON         LGT SNOW  14  10  84 W17       29.90S VSB 1   WCI  -3
WRIGHT-PAT AFB LGT SNOW  15  10  80 SW15      29.91R WCI   0
DAYTON GENERAL LGT SNOW  15   9  76 W10       29.92S WCI   2
WILMINGTON     LGT SNOW  14  10  84 W17       29.91R FOG     WCI  -3
$$

OHZ036-037-039>041-045>050-054>059-063>069-073>076-082>088-101400-
  CENTRAL AND SOUTHEAST OHIO

CITY           SKY/WX    TMP DP  RH WIND       PRES   REMARKS
COLUMBUS       LGT SNOW  15   9  76 SW8       29.89R VSB 1   WCI   4
OSU AIRPORT    LGT SNOW  16  11  80 W14       29.87S WCI   2
BOLTON FIELD   LGT SNOW  16  10  79 W14       29.89R WCI   1
RICKENBACK AFB LGT SNOW  15  11  85 W10       29.90S WCI   2
NEWARK         LGT SNOW  16  10  77 MISG      29.87R
MARION         LGT SNOW  17  10  74 W15       29.84R WCI   2
LANCASTER      LGT SNOW  15  10  80 SW12      29.90R VSB 3/4 WCI   2
ZANESVILLE     LGT SNOW  17   9  70 SW10      29.88R WCI   5
NEW PHILLY     LGT SNOW  18  13  80 VRB7G17   29.84R WCI   9
$$




USA.gov is the U.S. government's official web portal to all federal, state and local government web resources and services.